Location: Hobi?a Gr?di?te
(45.4833°N, 22.7833°E)
Time: 06:01:39
(UTC+00:00)

Feng Yun 1-1 Rocket - Pass Details

Date: 28 January 2023
Orbit: 830 x 933 km, 99.1° (Epoch: 29 March)

Event Time Altitude Azimuth Distance (km) Brightness Sun altitude
Rises 17:03:35 0° 144° (SE) 3,488 7.1 -16.6°
Reaches altitude 10° 17:06:05 10° 138° (SE) 2,537 6.4 -17.0°
Maximum altitude 17:11:24 45° 68° (ENE) 1,163 4.5 -17.9°
Drops below altitude 10° 17:16:38 10° 357° (N) 2,490 6.6 -18.8°
Sets 17:19:03 0° 351° (N) 3,418 7.4 -19.3°
